Harbor Springs, MI

7:42 PM EDT on April 29, 2017 (GMT -0400)
Harbor Springs

Weather History for KMGN - April, 2013

Change the Weather History Date:

Sunday, April 28, 2013

  Actual Average (KPLN) Record (KPLN)
Temperature  
Mean Temperature 54 °F -  
Max Temperature 72 °F 58 °F 88 °F (1986)
Min Temperature 36 °F 33 °F 19 °F (2001)
Degree Days  
Heating Degree Days 11    
Growing Degree Days 4 (Base 50)    
Moisture  
Dew Point 39 °F    
Average Humidity 60    
Maximum Humidity 94    
Minimum Humidity 32    
Precipitation  
Precipitation 0.00 in - - ()
Sea Level Pressure  
Sea Level Pressure 29.94 in    
Wind  
Wind Speed 5 mph (ENE)    
Max Wind Speed 13 mph    
Max Gust Speed 17 mph    
Visibility 10 miles    
Events      
Averages and records for this station are not official NWS values.
T = Trace of Precipitation, MM = Missing Value Source: NWS Daily Summary

Daily Weather History Graph

Daily Weather History Graph

Search for Another Location

Airport or City:

Trip Planner

Search our weather history database for the weather conditions in past years. The results will help you decide how hot, cold, wet, or windy it might be!

Date:

Astronomy

Apr. 28, 2013 Rise Set
Actual Time 6:32 AM EDT 8:42 PM EDT
Civil Twilight 5:59 AM EDT 9:15 PM EDT
Nautical Twilight 5:19 AM EDT 9:55 PM EDT
Astronomical Twilight 4:35 AM EDT 10:40 PM EDT
Moon No Moon Rise 8:42 AM EDT (4/28)
Length of Visible Light 15h 15m
Length of Day
14h 10m
Waning Gibbous, 89% of the Moon is Illuminated
Apr 28
Waning Gibbous
May 2
Last Quarter
May 9
New
May 18
First Quarter
May 25
Full

Hourly Weather History & Observations

Time (EDT) Temp. Windchill Dew Point Humidity Pressure Visibility Wind Dir Wind Speed Gust Speed Precip Events Conditions
12:15 AM 45.1 °F 43.7 °F 39.6 °F 81% 30.09 in 10.0 mi ENE 3.5 mph - N/A   Clear
12:35 AM 45.0 °F 43.5 °F 39.7 °F 82% 30.09 in 10.0 mi NE 3.5 mph - N/A   Clear
12:55 AM 42.3 °F 38.6 °F 37.9 °F 85% 30.08 in 10.0 mi ENE 5.8 mph - N/A   Clear
1:15 AM 41.9 °F 40.0 °F 38.3 °F 87% 30.08 in 10.0 mi ENE 3.5 mph - N/A   Clear
1:35 AM 41.4 °F - 37.4 °F 86% 30.07 in 10.0 mi Calm Calm - N/A   Clear
1:55 AM 41.2 °F 38.2 °F 37.6 °F 87% 30.07 in 10.0 mi NE 4.6 mph - N/A   Clear
2:15 AM 40.5 °F - 36.7 °F 86% 30.06 in 10.0 mi Calm Calm - N/A   Clear
2:35 AM 40.5 °F 38.4 °F 36.9 °F 87% 30.05 in 10.0 mi NE 3.5 mph - N/A   Clear
2:55 AM 40.5 °F 37.3 °F 37.6 °F 89% 30.05 in 10.0 mi NE 4.6 mph - N/A   Clear
3:15 AM 40.1 °F 38.0 °F 37.8 °F 91% 30.04 in 10.0 mi NE 3.5 mph - N/A   Clear
3:35 AM 39.7 °F 35.6 °F 37.2 °F 91% 30.04 in 10.0 mi ENE 5.8 mph - N/A   Clear
3:55 AM 39.4 °F 36.1 °F 36.7 °F 90% 30.04 in 10.0 mi NE 4.6 mph - N/A   Clear
4:15 AM 37.6 °F 35.1 °F 35.4 °F 92% 30.04 in 10.0 mi NE 3.5 mph - N/A   Clear
4:35 AM 37.6 °F 35.1 °F 35.6 °F 93% 30.03 in 10.0 mi NNE 3.5 mph - N/A   Clear
4:56 AM 37.6 °F 35.1 °F 35.2 °F 91% 30.03 in 10.0 mi North 3.5 mph - N/A   Clear
5:15 AM 37.6 °F 34.0 °F 35.8 °F 93% 30.02 in 10.0 mi NE 4.6 mph - N/A   Clear
5:35 AM 37.6 °F 35.1 °F 35.8 °F 93% 30.01 in 10.0 mi NE 3.5 mph - N/A   Clear
5:55 AM 37.6 °F - 35.6 °F 93% 30.01 in 10.0 mi Calm Calm - N/A   Clear
6:15 AM 36.3 °F 31.6 °F 34.5 °F 93% 30.01 in 10.0 mi ENE 5.8 mph - N/A   Clear
6:35 AM 37.6 °F 33.1 °F 35.8 °F 93% 30.01 in 10.0 mi NE 5.8 mph - N/A   Clear
6:55 AM 37.6 °F 33.1 °F 36.0 °F 94% 30.01 in 10.0 mi NE 5.8 mph - N/A   Clear
7:15 AM 38.7 °F 35.2 °F 36.9 °F 93% 30.02 in 10.0 mi ENE 4.6 mph - N/A   Clear
7:35 AM 40.3 °F 37.1 °F 38.3 °F 93% 30.01 in 10.0 mi NE 4.6 mph - N/A   Clear
7:55 AM 43.5 °F 41.9 °F 39.9 °F 87% 30.01 in 10.0 mi NE 3.5 mph - N/A   Clear
8:15 AM 47.7 °F - 41.5 °F 79% 30.01 in 10.0 mi ENE 3.5 mph - N/A   Clear
8:35 AM 50.4 °F - 41.4 °F 71% 30.01 in 10.0 mi East 3.5 mph - N/A   Clear
9:15 AM 52.7 °F - 40.5 °F 63% 30.01 in 10.0 mi ENE 5.8 mph - N/A   Mostly Cloudy
9:35 AM 55.4 °F - 40.6 °F 58% 30.00 in 10.0 mi ENE 4.6 mph - N/A   Overcast
9:55 AM 57.0 °F - 39.7 °F 52% 30.00 in 10.0 mi NE 3.5 mph - N/A   Overcast
10:15 AM 57.7 °F - 38.7 °F 49% 29.99 in 10.0 mi ENE 4.6 mph - N/A   Overcast
10:35 AM 59.2 °F - 39.0 °F 47% 29.98 in 10.0 mi ENE 4.6 mph - N/A   Scattered Clouds
10:55 AM 62.2 °F - 38.7 °F 42% 29.98 in 10.0 mi NE 4.6 mph - N/A   Scattered Clouds
11:15 AM 65.5 °F - 39.2 °F 38% 29.97 in 10.0 mi Calm Calm - N/A   Mostly Cloudy
11:35 AM 66.0 °F - 38.7 °F 37% 29.96 in 10.0 mi ESE 3.5 mph - N/A   Scattered Clouds
11:55 AM 68.0 °F - 39.0 °F 35% 29.95 in 10.0 mi East 4.6 mph - N/A   Mostly Cloudy
12:15 PM 66.6 °F - 37.9 °F 35% 29.95 in 10.0 mi East 5.8 mph - N/A   Mostly Cloudy
12:35 PM 65.7 °F - 37.0 °F 35% 29.94 in 10.0 mi East 4.6 mph - N/A   Overcast
12:55 PM 68.0 °F - 37.4 °F 33% 29.94 in 10.0 mi NE 6.9 mph - N/A   Overcast
1:15 PM 68.0 °F - 37.0 °F 32% 29.93 in 10.0 mi ENE 6.9 mph - N/A   Overcast
1:35 PM 66.0 °F - 37.0 °F 34% 29.92 in 10.0 mi ENE 6.9 mph - N/A   Overcast
1:55 PM 67.3 °F - 38.3 °F 35% 29.92 in 10.0 mi East 8.1 mph - N/A   Overcast
2:15 PM 68.0 °F - 38.1 °F 33% 29.91 in 10.0 mi NE 6.9 mph - N/A   Overcast
2:35 PM 68.0 °F - 37.6 °F 33% 29.90 in 10.0 mi NE 6.9 mph - N/A   Overcast
2:55 PM 68.0 °F - 37.8 °F 33% 29.89 in 10.0 mi East 9.2 mph - N/A   Overcast
3:15 PM 69.3 °F - 37.9 °F 32% 29.88 in 10.0 mi ENE 8.1 mph - N/A   Mostly Cloudy
3:35 PM 70.7 °F - 39.2 °F 32% 29.87 in 10.0 mi East 6.9 mph - N/A   Clear
3:55 PM 70.9 °F - 39.2 °F 32% 29.86 in 10.0 mi ENE 9.2 mph - N/A   Clear
4:15 PM 71.2 °F - 39.7 °F 32% 29.85 in 10.0 mi NE 5.8 mph - N/A   Clear
4:35 PM 72.9 °F - 41.0 °F 32% 29.84 in 10.0 mi ENE 6.9 mph - N/A   Clear
4:55 PM 72.9 °F - 41.4 °F 32% 29.83 in 10.0 mi NE 8.1 mph - N/A   Scattered Clouds
5:15 PM 72.9 °F - 41.5 °F 32% 29.83 in 10.0 mi NE 9.2 mph - N/A   Mostly Cloudy
5:35 PM 68.0 °F - 39.0 °F 35% 29.83 in 10.0 mi ENE 12.7 mph 17.3 mph N/A   Overcast
5:55 PM 68.0 °F - 39.9 °F 36% 29.83 in 10.0 mi ENE 10.4 mph - N/A   Mostly Cloudy
6:16 PM 68.0 °F - 40.3 °F 36% 29.82 in 10.0 mi ENE 9.2 mph - N/A   Overcast
6:35 PM 68.0 °F - 41.2 °F 38% 29.82 in 10.0 mi ENE 11.5 mph - N/A   Mostly Cloudy
6:55 PM 68.0 °F - 41.9 °F 39% 29.81 in 10.0 mi ENE 9.2 mph - N/A   Scattered Clouds
7:15 PM 64.6 °F - 42.1 °F 44% 29.82 in 10.0 mi ESE 5.8 mph - N/A   Clear
7:35 PM 65.3 °F - 43.2 °F 45% 29.82 in 10.0 mi East 3.5 mph - N/A   Clear
7:55 PM 62.8 °F - 42.3 °F 47% 29.81 in 10.0 mi East 3.5 mph - N/A   Clear
8:15 PM 61.7 °F - 41.9 °F 48% 29.82 in 10.0 mi Calm Calm - N/A   Clear
8:35 PM 60.3 °F - 41.7 °F 50% 29.82 in 10.0 mi East 3.5 mph - N/A   Clear
8:55 PM 59.2 °F - 41.7 °F 52% 29.82 in 10.0 mi East 4.6 mph - N/A   Clear
9:15 PM 58.5 °F - 42.4 °F 55% 29.83 in 10.0 mi East 4.6 mph - N/A   Clear
9:35 PM 57.7 °F - 42.4 °F 57% 29.83 in 10.0 mi East 3.5 mph - N/A   Clear
9:55 PM 57.7 °F - 43.5 °F 59% 29.84 in 10.0 mi East 3.5 mph - N/A   Clear
10:15 PM 57.7 °F - 43.7 °F 60% 29.85 in 10.0 mi East 4.6 mph - N/A   Scattered Clouds
10:35 PM 57.4 °F - 44.4 °F 62% 29.85 in 10.0 mi ENE 4.6 mph - N/A   Scattered Clouds
10:55 PM 56.3 °F - 44.2 °F 64% 29.85 in 10.0 mi East 5.8 mph - N/A   Clear
11:15 PM 57.7 °F - 45.5 °F 64% 29.84 in 10.0 mi ESE 4.6 mph - N/A   Clear
11:35 PM 57.0 °F - 45.3 °F 65% 29.84 in 10.0 mi ESE 3.5 mph - N/A   Clear
11:55 PM 54.9 °F - 44.8 °F 69% 29.84 in 10.0 mi ENE 3.5 mph - N/A   Clear